Starlink 34690

operational
NORAD ID: 64863 Int'l Des: 2025-152 Owner: SPXS Country: US Constellation: starlink
LEOCIRCULARRETROGRADESSO

关于 Starlink 34690

正在加载描述...

实时位置

正在加载3D地球...

即将过境

高度历史

Altitude vs Time

uPlot chart will show altitude changes over time

两行轨道根数

1 64863U 25152X 26063.12393402 .00006904 00000-0 48202-3 0 9991
2 64863 97.5999 280.0869 0002313 103.2084 256.9401 15.05664916 34587
Epoch: Mar 4, 2026 • Age: 12 hours

当前状态

高度 570.0 km
速度 7.57 km/s
星下点 -49.18°S, 57.83°W
发射日期 Jul 19, 2025
运行时间 0.6 years
类型 internet

技术详情

分类 Payload
质量 575.00 kg
干质量 530.00 kg
总质量 575.00 kg
长度 0.30 m
直径 4.10 m
跨度 29.00 m
形状 Box + pan
制造商 SPXS
平台类型 Starlink V2MO
阶段状态 In Orbit
所有者/国家 SPXS/US

大型星座

Loading constellations...